Address 0x010e5a1e69378e8fee6c040f587c94423add0727 8

Overview

Balance:
96,573,519.047920666500543037 BTT

BTT Value:
$66.21 (@ $0.00/BTT)
Txn Hash Method
Block
From
To
Value [Txn Fee]
0xa117ce9dd503ca071811edc0a2c0ac866d61a14a1b8349ca7e55c4a8bbac8693Withdraw To144836332022-11-21 14:33:054 days 22 hrs ago0x010e5a1e69378e8fee6c040f587c94423add0727OUT Kyber Network: KNC_b Token0 BTT10.8852
0xb88a6799ae2bca5e80d196f610ad43f8ad95a894bb68d45535adfdc6068229710xa7f5c104144835482022-11-21 14:30:114 days 22 hrs ago0x010e5a1e69378e8fee6c040f587c94423add0727OUT Kyber Swap: Aggregation Router 30 BTT53.1309
0xf18a91c3574b350e8df840f31645bf772877690ff31291dbfd1a267ed15452f2Withdraw To143939212022-11-19 11:09:177 days 1 hr ago0x010e5a1e69378e8fee6c040f587c94423add0727OUT Kyber Network: KNC_e Token0 BTT10.8816
0x25325f664dd62dc7d13153c2a72ab6ef2eae3b4f11adf15f9910be7248c3066b0xa7f5c104143938942022-11-19 11:08:197 days 1 hr ago0x010e5a1e69378e8fee6c040f587c94423add0727OUT Kyber Swap: Aggregation Router 30 BTT53.5809
0x368496fded0373438c3b5f2ab79f18120eccb382e3afc9707a772dea31e4df370x01c6de69141055312022-11-12 13:53:4113 days 23 hrs ago0x010e5a1e69378e8fee6c040f587c94423add0727OUT 0x0cca0d68c00d1e22cb32e85c5c5327b7d1d86b730 BTT27.4638
0xd86f0235859423c8bf8c6a129e891d74b585c220e54bb69b6aea6a52731b62970xa7f5c104141054872022-11-12 13:52:1313 days 23 hrs ago0x010e5a1e69378e8fee6c040f587c94423add0727OUT Kyber Swap: Aggregation Router 30 BTT48.8712
0x460f2e6f1c993de7cb043915a6a74a1f1f073e24764d98c5cf0327e05e33b46b0xa7f5c104141054702022-11-12 13:51:3513 days 23 hrs ago0x010e5a1e69378e8fee6c040f587c94423add0727OUT Kyber Swap: Aggregation Router 30 BTT54.2112
0xd069a6db9acb42d53f7fd1232a3e1328a38e3e25d3fcfb418637e86cc98624370x01c6de69140837822022-11-12 1:26:0714 days 11 hrs ago0x010e5a1e69378e8fee6c040f587c94423add0727OUT 0x0cca0d68c00d1e22cb32e85c5c5327b7d1d86b730 BTT49.2717
0xfff4cd31ea27c100471855e1e3c6c8af909942bcab7f8817a0d7101b0a704c3eApprove140837292022-11-12 1:24:1714 days 11 hrs ago0x010e5a1e69378e8fee6c040f587c94423add0727OUT Kyber Network: KNC_b Token0 BTT13.9785
0xc5a13575cbbea88deb7e942614d20883bdff77588e9b4d97bac5898cdc894d8c0xa7f5c104140836882022-11-12 1:22:5114 days 11 hrs ago0x010e5a1e69378e8fee6c040f587c94423add0727OUT Kyber Swap: Aggregation Router 30 BTT53.3469
0x02e57182b56f032e98b05131d5256d809ee14bada5f9f198f52905dc9c9845050xedbdf5e2139989982022-11-10 0:51:3916 days 12 hrs ago0x010e5a1e69378e8fee6c040f587c94423add0727OUT 0x639a647fbe20b6c8ac19e48e2de44ea792c62c5c0 BTT15.9861
0xa026388c024ff6c0d1f671b8b211f4b6a1f2d96f93d66c99613874dd3caf0b640xa7f5c104139989782022-11-10 0:50:5916 days 12 hrs ago0x010e5a1e69378e8fee6c040f587c94423add0727OUT Kyber Swap: Aggregation Router 30 BTT77.3835
0x98b1d4c2a82dd24304d0a8d05943c5dad5a60d35275bc230e9f4dcc3fe9455f60x01c6de69139976412022-11-10 0:05:0116 days 12 hrs ago0x010e5a1e69378e8fee6c040f587c94423add0727OUT 0x0cca0d68c00d1e22cb32e85c5c5327b7d1d86b730 BTT49.2717
0x48135978a88722d977794c9c5c88a1e70185abd729f03d6c13c0de6b0335701cApprove139972252022-11-09 23:50:4116 days 13 hrs ago0x010e5a1e69378e8fee6c040f587c94423add0727OUT BitTorrent: ETH Token0 BTT13.9785
0x403c980dc19612f60d8b64907deb70c35eb3aa4300a5333f2f3fbf84028220350xa7f5c104139971852022-11-09 23:49:2116 days 13 hrs ago0x010e5a1e69378e8fee6c040f587c94423add0727OUT Kyber Swap: Aggregation Router 30 BTT77.1315
0xf3b245307593910401588a89f578186b403d19d31399f70974b031bfacef660e0xedbdf5e2139957402022-11-09 22:59:3916 days 14 hrs ago0x010e5a1e69378e8fee6c040f587c94423add0727OUT 0x639a647fbe20b6c8ac19e48e2de44ea792c62c5c0 BTT15.9825
0x742907f307a76756540727a1ac7fa5e94dd8490c87727799e5a0a024554bb2150xa7f5c104139957182022-11-09 22:58:5516 days 14 hrs ago0x010e5a1e69378e8fee6c040f587c94423add0727OUT Kyber Swap: Aggregation Router 30 BTT77.1633
0x79432fd0ecb216bfadf82f5a44b8be95dbf3463bf1febb09f0c474e04614c8ed0xedbdf5e2139851422022-11-09 16:55:1916 days 20 hrs ago0x010e5a1e69378e8fee6c040f587c94423add0727OUT 0x639a647fbe20b6c8ac19e48e2de44ea792c62c5c0 BTT15.9825
0x1345996dd6d14900712a8be09374ba09f17888d8303dd00f163d5c6e161ac5bc0xa7f5c104139850132022-11-09 16:50:5316 days 20 hrs ago0x010e5a1e69378e8fee6c040f587c94423add0727OUT Kyber Swap: Aggregation Router 30 BTT77.1477
0x6eab167a8ba86f2130608d7f62a1bbb428f1ba0195870d0baa6804c2e8f1c3120xedbdf5e2139735202022-11-09 10:15:5117 days 2 hrs ago0x010e5a1e69378e8fee6c040f587c94423add0727OUT 0x639a647fbe20b6c8ac19e48e2de44ea792c62c5c0 BTT15.9861
0x32c9f210920588db14d608307b18a64f07b60bc81d5eafa634951835993e78b70xa7f5c104139734762022-11-09 10:14:1917 days 2 hrs ago0x010e5a1e69378e8fee6c040f587c94423add0727OUT Kyber Swap: Aggregation Router 30 BTT76.1535
0x1987d878b3492a326b7ed51752df1c532497030296af982dc0e995d987ce76880xedbdf5e2139613352022-11-09 3:16:5717 days 9 hrs ago0x010e5a1e69378e8fee6c040f587c94423add0727OUT 0x639a647fbe20b6c8ac19e48e2de44ea792c62c5c0 BTT15.9789
0x17e2e820d6c11b040ab9f672c34b782b954aae28c85858acc2c7b70fd6bced320xa7f5c104139613162022-11-09 3:16:1917 days 9 hrs ago0x010e5a1e69378e8fee6c040f587c94423add0727OUT Kyber Swap: Aggregation Router 30 BTT77.0865
0x78f6b4b2e4c8e3f847f42dd9cdaa25dded21eee6600cfa24824967fd70c6273c0xedbdf5e2139549732022-11-08 23:38:1717 days 13 hrs ago0x010e5a1e69378e8fee6c040f587c94423add0727OUT 0x639a647fbe20b6c8ac19e48e2de44ea792c62c5c0 BTT15.9825
0x9c25e7d3b559087c43d26e71f85395ee9a18746222c4a98a6ec1b4cd355f38f40xa7f5c104139549542022-11-08 23:37:3917 days 13 hrs ago0x010e5a1e69378e8fee6c040f587c94423add0727OUT Kyber Swap: Aggregation Router 30 BTT77.4165
[ Download CSV Export 
Latest 8 internal transactions
Parent Txn Hash Block From To Value
0x98cff4e53b1bfd9dad7f94d700f8b6d6f53f2e7cf1f40a71cbaff625af5c837b68830372022-05-23 23:33:04186 days 13 hrs ago 0x75398fe6acf0139c4f4239b1e1d3d934d650d0610x010e5a1e69378e8fee6c040f587c94423add0727200 BTT
0xe1cea502126f74bc99245841954ad04424df392c561b5e5fcde01faaafa9e58463621872022-05-11 13:00:17199 days 4 mins ago 0xd12bcdfb9a39be79da3bdf02557efdcd5ca59e770x010e5a1e69378e8fee6c040f587c94423add07271,262,201,978.42341379094930533 BTT
0xfb785a44bd69a8a3a32be56bb3f7229da5c2365d879e831b9edcfd7553cbd59e58019222022-04-27 21:29:37212 days 15 hrs ago 0xd12bcdfb9a39be79da3bdf02557efdcd5ca59e770x010e5a1e69378e8fee6c040f587c94423add0727307,515.556243510184903764 BTT
0x1ef74d6999cd6d5ba7017f088f0449d751acd321cecdbccd489e10e3cafe16dd57842922022-04-27 11:11:02213 days 1 hr ago 0xd12bcdfb9a39be79da3bdf02557efdcd5ca59e770x010e5a1e69378e8fee6c040f587c94423add0727488,497.30862506865631287 BTT
0xfe36ce567b67c30e6a54cfe9eccf31c8ec2c0d41d8819186ad77a101dc8a2d2357229702022-04-25 23:17:52214 days 13 hrs ago 0xd12bcdfb9a39be79da3bdf02557efdcd5ca59e770x010e5a1e69378e8fee6c040f587c94423add0727277,716.971861354753570342 BTT
0x2551757d889c92acf57b85f62bff7894c75fd8c93c8e2341a395ef9b24758d4b55366752022-04-21 12:33:42219 days 31 mins ago 0xd12bcdfb9a39be79da3bdf02557efdcd5ca59e770x010e5a1e69378e8fee6c040f587c94423add072750,968,776.236992949364117717 BTT
0x613b4802f33fbcb3233b87c461261c41fbbbe432eb5c497611e21a64e45291f955361772022-04-21 12:16:34219 days 48 mins ago 0xd12bcdfb9a39be79da3bdf02557efdcd5ca59e770x010e5a1e69378e8fee6c040f587c94423add0727782,974.453446796480853064 BTT
0xc803bd55c7208c8ced84390793a5528fb6f774aca233df1162d1c67271f332da55361102022-04-21 12:14:16219 days 50 mins ago 0xd12bcdfb9a39be79da3bdf02557efdcd5ca59e770x010e5a1e69378e8fee6c040f587c94423add07272,601,558.18257719611147995 BTT
[ Download CSV Export 
Loading

Contract Name:
0

Compiler Version
0

Optimization Enabled:
0

Other Settings:
-NA-
Block Transaction Gas Used Reward
Age Block Fee Address BC Fee Address Voting Power Jailed Incoming
Block Uncle Number Difficulty Gas Used Reward
Loading
Make sure to use the "Vote Down" button for any spammy posts, and the "Vote Up" for interesting conversations.